Location: Long Island Community Building
(39.9491°N, 99.5338°W)
Time: 09:57:59
(UTC+00:00)

Okean 1 - Pass Details

Date: 06 December 2019
Orbit: 539 x 555 km, 82.5° (Epoch: 19 January)

Event Time Altitude Azimuth Distance (km) Brightness Sun altitude
Rises 13:07:11 0° 344° (NNW) 2,704 6.5 -7.4°
Reaches altitude 10° 13:09:26 10° 337° (NNW) 1,807 5.5 -7.0°
Maximum altitude 13:13:08 39° 268° (W) 816 3.8 -6.3°
Drops below altitude 10° 13:16:50 10° 198° (SSW) 1,796 6.0 -5.7°
Sets 13:19:04 0° 191° (S) 2,685 7.0 -5.3°
